Location: Marshall
(39.8477°N, 87.1868°W)
Time: 03:08:15
(UTC+00:00)

Envisat - Pass Details

Date: 08 May 2026
Orbit: 761 x 763 km, 98.4° (Epoch: 9 June)

Event Time Altitude Azimuth Distance (km) Brightness Sun altitude
Rises 08:22:32 0° 13° (NNE) 3,232 7.3 -22.3°
Reaches altitude 10° 08:24:50 10° 15° (NNE) 2,302 6.4 -22.0°
Maximum altitude 08:29:55 82° 103° (ESE) 773 2.9 -21.3°
Enters shadow 08:31:48 40° 186° (S) 1,113 3.4 -21.1°
